Theta_e
319 321 326 327 331 333 331 331 323 324 323 314 315 316 318 322 321 321 321 325 326 329 332 333 337 336 336 337 337 336 334 336 338 334 335 346 346 343 346 345 347 348 347 345 343 341 336 331 331 330 328 327 326 328 328 328 330 329 330 333 337 338 336 334 333 335 337 337 336 335 335 336 336 336 338 341 342 340 340 339 339 339 340 341 340 340 340 340 340 340 338 335 334 333 331 328 327
321 322 327 328 332 332 329 328 320 318 318 313 314 316 318 323 321 320 322 324 326 330 334 334 336 335 334 333 332 334 336 338 339 340 342 345 344 344 346 346 347 347 347 345 343 342 338 331 325 325 328 328 329 331 331 332 334 335 335 337 337 334 331 330 329 329 331 332 332 332 332 331 331 332 334 339 341 341 340 340 340 339 339 340 340 341 341 341 340 340 339 337 336 333 331 328 327
322 325 330 330 332 330 328 327 318 312 314 312 313 319 321 321 321 321 323 324 326 331 334 335 335 335 333 333 334 335 339 341 341 342 343 344 344 344 346 346 347 348 346 344 343 342 342 337 328 327 331 333 335 336 336 337 338 339 338 335 333 333 334 336 336 334 334 335 336 337 336 333 331 329 328 333 340 341 341 341 341 340 340 340 341 341 341 341 341 339 338 338 336 332 330 328 328
321 326 330 330 329 327 327 325 320 313 312 311 312 320 322 321 322 322 324 324 326 331 334 334 333 334 333 336 336 336 341 343 344 344 342 344 344 344 346 346 347 348 346 344 343 342 342 339 334 335 338 339 340 340 341 339 337 336 334 331 334 337 339 340 340 339 339 339 340 339 339 337 334 331 327 329 337 341 340 341 340 341 341 340 340 341 341 341 341 340 338 337 333 330 330 329 328
322 327 330 330 328 325 325 323 322 315 312 313 312 320 322 320 323 324 324 324 326 330 332 333 333 334 334 338 338 339 343 344 345 345 344 345 345 344 346 346 348 349 346 344 343 343 343 339 337 338 340 340 339 341 341 338 335 330 329 333 338 340 340 340 341 341 341 341 340 340 340 339 336 334 330 328 333 337 339 340 340 340 340 340 340 340 341 341 340 340 338 335 332 331 330 328 327
324 327 329 330 328 326 325 320 318 315 317 319 317 320 323 322 324 323 324 325 326 328 331 332 332 332 336 340 340 342 345 344 345 344 345 345 345 345 346 346 348 348 347 345 343 343 342 340 339 338 339 338 338 340 339 336 331 326 330 337 340 340 339 340 340 341 341 341 340 340 340 339 337 333 330 329 330 335 338 340 340 340 340 340 340 340 340 339 339 339 336 333 332 331 330 328 326
325 326 327 326 325 326 323 317 315 315 319 323 319 321 323 323 324 324 325 326 327 328 330 332 332 330 334 340 342 345 347 347 346 345 346 346 346 347 347 346 347 348 347 346 342 342 342 340 340 340 340 339 339 341 340 335 329 327 334 339 339 339 339 339 340 340 341 341 341 341 340 339 337 332 330 330 333 336 337 339 340 340 340 340 339 339 338 338 337 335 332 332 332 331 330 327 326
325 326 325 324 324 324 320 317 317 318 321 323 321 321 322 323 323 324 326 326 327 328 330 332 330 329 333 338 342 346 348 348 348 347 347 346 347 348 347 346 348 348 348 346 342 342 340 339 341 341 341 341 341 342 339 335 331 332 337 338 338 337 337 338 340 340 341 341 340 340 341 339 334 329 329 331 333 336 338 338 339 339 339 339 337 337 336 336 335 333 331 331 332 331 329 326 325
324 325 325 323 324 322 318 317 319 321 323 322 321 321 321 323 323 325 326 328 328 329 330 331 329 331 334 338 343 347 349 349 349 347 346 345 346 348 347 346 347 347 347 346 344 342 339 338 341 340 340 340 341 340 337 333 333 336 337 338 337 335 336 337 339 340 340 340 340 340 340 335 329 325 328 331 329 333 338 338 338 339 339 337 335 334 333 334 333 332 331 331 331 331 328 325 324
323 323 325 323 322 319 315 315 318 320 321 320 321 321 321 323 324 325 327 328 329 329 330 330 330 332 335 340 345 346 348 350 349 348 346 346 346 346 346 345 347 348 347 346 344 342 339 337 339 339 340 339 340 338 333 330 332 335 336 336 336 336 336 337 338 339 339 339 339 339 337 331 327 326 325 327 328 331 336 337 338 338 338 336 333 332 332 332 332 331 331 331 331 330 326 325 324
322 321 323 322 319 315 313 314 316 319 320 320 321 321 322 323 325 326 327 329 329 329 329 330 330 331 335 341 346 346 349 350 348 348 347 346 345 344 344 344 346 347 347 346 344 342 339 337 337 338 339 339 339 337 331 328 331 335 335 336 336 336 336 337 338 338 339 339 339 338 333 329 327 326 324 325 329 332 336 337 337 337 337 335 331 331 331 330 331 331 331 331 330 328 325 324 323
321 321 322 320 316 315 314 315 315 319 320 320 321 321 321 322 324 326 327 328 328 330 329 331 331 331 335 340 345 347 349 349 348 348 347 347 345 343 341 342 344 346 346 344 344 342 340 338 337 336 338 339 339 338 335 333 334 335 336 336 336 336 336 336 337 338 338 338 338 336 331 329 327 326 325 325 330 333 335 336 336 336 336 333 330 330 329 330 330 330 330 330 328 326 325 323 323
320 322 321 318 318 318 316 316 316 319 319 320 321 320 320 320 324 326 327 326 327 329 329 330 330 332 335 341 346 346 348 349 349 348 346 347 347 344 341 342 344 346 346 344 343 342 341 339 338 337 337 338 339 339 338 337 335 336 337 336 336 336 335 336 337 337 337 337 337 334 330 329 328 327 326 324 329 333 333 334 335 334 333 331 329 329 328 329 329 329 329 328 327 325 324 323 323
320 322 320 319 320 319 317 315 317 318 317 321 319 318 319 320 323 325 325 325 328 329 331 332 329 331 337 343 345 343 347 348 349 348 346 347 346 342 343 345 345 346 345 345 344 344 343 340 339 339 338 339 339 339 338 337 336 336 336 336 336 335 334 335 336 336 337 337 336 333 330 329 328 327 327 325 327 331 332 333 334 332 330 328 328 328 329 329 329 329 328 327 326 325 324 323 323
320 321 321 320 319 317 317 316 318 316 316 320 318 320 323 324 324 324 323 326 333 333 332 335 331 332 336 340 341 343 348 348 348 349 347 348 344 337 343 346 342 343 344 345 345 345 345 342 340 338 339 339 338 338 338 338 336 336 336 336 335 334 334 334 335 336 336 336 335 332 330 330 329 327 327 323 323 329 333 333 333 330 328 328 328 328 330 330 329 328 327 327 326 325 324 324 324
320 321 320 319 316 314 316 318 319 316 317 320 319 323 327 328 326 323 323 328 335 334 333 335 335 337 339 341 344 345 348 349 348 348 348 348 343 336 341 344 342 343 344 345 345 344 345 343 341 338 340 340 338 339 338 338 337 336 336 335 335 334 334 334 334 335 336 336 334 332 332 332 331 330 329 324 322 329 334 333 333 332 329 327 327 329 330 329 328 327 327 327 326 325 325 324 324
319 320 320 317 314 314 317 319 318 316 318 320 321 325 327 330 328 327 326 328 335 336 338 340 340 343 343 345 346 346 348 349 348 348 348 348 345 340 342 344 343 344 345 345 345 344 344 344 341 339 340 340 340 340 340 340 338 337 336 335 335 335 335 334 333 334 336 336 333 333 336 337 335 336 334 330 327 331 334 332 334 334 331 329 328 329 329 328 328 327 327 326 325 325 326 326 326
318 320 318 315 315 316 318 319 317 317 318 319 321 323 327 329 329 330 327 329 336 337 340 343 343 344 344 345 346 347 348 348 348 348 347 347 346 344 343 343 344 344 343 345 345 344 343 344 342 340 340 341 341 341 341 341 338 338 338 337 336 336 335 334 335 337 338 337 335 337 339 338 337 339 338 336 332 332 333 333 334 333 330 329 327 326 327 327 327 327 327 326 326 328 330 331 331
318 320 318 316 317 319 319 318 317 317 317 318 320 323 327 330 331 331 329 333 337 336 339 342 342 343 343 345 346 347 348 348 348 347 347 347 346 345 344 343 343 344 343 344 344 345 344 344 343 341 340 341 341 341 342 342 340 340 341 340 339 338 337 337 339 340 340 339 339 340 339 337 338 338 336 334 333 333 334 333 334 330 327 326 325 326 326 327 327 327 327 327 328 331 333 334 334
318 319 318 317 319 319 318 317 316 316 316 317 320 324 327 329 331 332 331 333 334 334 337 338 341 343 342 343 347 347 347 348 347 346 346 346 346 346 344 343 343 344 343 343 344 344 344 343 343 342 340 341 342 341 342 341 340 341 341 342 341 342 341 341 342 342 342 341 340 340 339 338 337 335 330 329 331 333 334 333 332 330 327 326 326 328 328 328 329 329 329 331 332 333 334 333 332
317 318 318 318 319 319 317 317 316 315 315 315 318 325 330 330 331 334 332 331 330 333 336 336 339 342 342 343 346 347 346 347 346 346 346 345 345 345 344 344 344 344 343 343 344 344 344 344 343 342 341 341 341 341 341 341 340 340 341 342 343 344 343 342 343 343 342 341 340 340 338 338 338 336 335 335 334 334 334 334 333 332 331 330 330 333 332 332 333 333 333 334 334 334 333 333 331
317 317 318 318 319 319 317 316 315 315 315 315 317 325 331 332 333 334 332 330 333 336 337 338 339 341 342 343 344 345 345 345 345 345 345 345 345 344 344 344 344 343 344 343 343 344 345 344 343 342 341 341 341 342 342 341 340 340 341 342 342 343 342 342 342 342 342 341 340 340 339 339 338 338 338 338 336 335 334 334 334 334 334 333 334 335 334 335 335 335 335 335 334 333 333 332 331
317 317 317 318 318 318 317 316 315 314 315 315 317 323 328 332 335 335 334 335 339 341 338 339 341 342 343 344 344 343 343 343 344 344 344 344 344 344 344 344 343 342 343 344 343 345 345 345 343 342 341 341 341 342 341 340 339 340 341 340 340 340 340 341 341 341 342 342 340 339 339 339 338 337 337 337 336 335 335 335 336 334 333 333 334 334 334 336 335 336 336 335 334 333 333 332 331
316 316 316 317 317 317 317 316 315 314 315 315 314 320 325 330 336 337 338 339 341 341 340 341 343 344 344 343 342 341 342 343 343 343 342 343 343 343 343 343 343 342 343 344 344 344 345 344 343 342 342 341 342 342 341 339 338 339 340 340 339 339 339 339 340 341 342 342 341 340 339 339 337 337 336 336 336 335 334 335 335 334 333 333 333 334 334 335 335 336 336 335 335 334 333 332 332
315 316 316 316 316 317 316 315 315 314 315 314 314 319 324 329 336 339 340 341 340 340 341 340 341 341 341 341 341 341 342 342 342 342 342 342 342 342 342 342 342 342 343 344 343 343 344 344 343 342 342 342 342 342 341 339 338 338 339 340 339 338 338 339 340 341 342 342 341 341 340 339 337 336 336 336 336 336 334 334 334 333 333 333 333 334 334 335 336 336 336 337 336 336 335 334 333
315 315 315 315 316 317 316 315 314 314 314 314 315 320 325 328 333 338 340 340 339 340 340 339 339 338 339 340 341 341 341 342 342 341 342 341 341 342 341 341 341 342 342 343 342 342 344 344 344 343 342 342 342 342 341 339 338 338 339 339 337 337 338 340 340 341 342 342 342 341 341 340 338 336 336 336 337 337 335 335 334 334 333 333 333 334 334 335 336 336 337 337 337 336 337 336 334
314 315 314 315 316 316 315 314 313 314 313 314 316 318 321 322 326 334 339 339 338 339 340 339 338 338 338 339 341 342 342 342 342 341 342 341 341 341 341 341 341 342 342 343 343 342 343 343 344 343 342 342 342 342 341 339 338 337 338 337 335 337 339 339 339 340 341 342 342 341 341 341 339 338 337 336 337 337 336 336 335 334 334 333 333 334 335 336 336 337 337 337 337 337 337 337 335
313 313 314 314 315 315 315 314 313 313 313 313 315 317 318 318 327 336 339 338 338 338 339 339 338 338 338 337 338 341 342 341 341 341 342 342 341 341 342 342 341 342 342 342 342 342 342 343 343 343 343 343 342 342 342 339 338 337 337 336 335 336 338 338 339 340 341 342 342 341 341 341 340 340 338 335 337 337 336 338 337 335 335 334 334 335 336 337 337 337 338 338 338 337 337 337 337
312 312 313 314 314 315 315 313 313 313 313 313 314 316 314 320 333 338 338 337 337 338 339 338 338 338 337 337 336 338 340 340 341 341 341 341 340 341 341 341 340 340 341 341 341 341 342 342 342 343 343 343 342 342 341 340 339 338 338 337 337 337 337 338 339 340 340 342 342 342 341 341 341 341 339 336 336 337 337 338 338 337 337 336 337 337 337 338 338 338 338 338 338 337 337 337 337
312 312 313 314 313 314 316 313 312 313 312 312 313 313 314 323 335 338 338 338 337 337 339 338 338 338 337 336 335 336 338 339 339 339 339 338 337 338 338 338 339 339 339 339 340 340 341 342 341 342 343 342 342 342 341 341 340 339 338 337 338 338 338 338 339 340 340 340 342 342 341 341 341 341 340 338 336 336 337 338 338 338 338 338 338 338 338 338 338 338 337 337 337 337 337 336 337
312 312 312 314 311 311 315 313 312 313 311 312 312 311 313 322 333 338 338 338 337 335 336 338 338 338 337 337 336 336 337 338 338 337 337 336 336 336 336 337 337 338 338 338 339 339 340 341 341 341 342 342 341 341 342 341 341 339 338 338 338 338 338 338 338 339 340 339 339 341 341 341 341 341 341 340 338 337 337 337 338 338 338 338 338 338 339 338 338 338 337 337 336 336 336 336 336
312 311 310 312 310 311 315 313 313 313 311 312 312 311 313 320 331 337 337 338 339 335 336 338 338 338 337 337 336 335 335 337 337 336 337 336 336 336 336 336 337 337 338 338 339 339 339 340 340 341 341 342 340 340 340 340 341 341 339 339 338 338 338 337 338 338 337 337 338 338 341 342 341 341 342 341 340 338 336 336 337 338 339 339 338 339 339 338 338 339 339 338 336 335 336 336 337
312 311 308 310 310 310 312 313 314 313 312 312 311 313 315 320 330 336 336 337 338 337 337 338 337 337 337 336 336 335 334 335 336 337 337 336 336 336 336 336 337 337 337 338 338 338 338 338 340 340 340 341 340 339 339 338 340 340 340 339 338 338 337 337 338 335 330 331 336 337 339 341 341 341 341 341 341 340 338 337 336 338 339 338 338 339 339 338 339 339 339 339 338 336 335 336 337
310 311 309 310 310 310 310 312 313 312 312 312 312 314 315 320 329 334 336 336 336 337 337 336 337 336 336 335 334 334 333 333 335 336 336 335 336 336 336 336 336 337 337 337 338 338 338 338 339 339 339 340 340 340 339 338 338 339 340 339 337 337 337 336 336 334 327 322 328 335 337 338 340 341 341 341 341 340 340 338 337 338 338 337 338 339 338 338 339 340 340 340 339 337 336 336 337
309 310 309 310 310 310 310 311 312 311 312 312 312 313 314 321 327 331 334 334 334 336 336 335 335 335 335 334 333 333 332 332 334 335 335 335 336 336 336 336 336 336 336 336 336 337 338 337 337 338 338 338 339 339 339 339 339 339 339 338 337 338 337 337 336 334 331 326 327 332 335 336 338 340 341 341 341 341 340 340 339 339 338 337 338 339 338 338 340 342 342 341 341 339 337 337 338
311 311 310 309 309 310 311 312 312 312 312 312 313 312 314 321 326 329 331 333 335 337 337 335 334 334 333 332 332 332 331 332 333 333 334 334 334 335 335 335 335 335 336 336 336 336 337 337 337 337 337 337 338 338 338 338 338 339 339 338 337 337 337 338 337 335 334 334 333 334 334 335 335 338 341 341 341 341 341 341 341 340 339 338 339 338 338 338 341 343 341 341 341 340 337 337 339
312 312 311 310 310 310 313 314 312 312 311 311 313 313 313 321 326 328 330 332 336 338 337 334 333 332 332 331 331 331 331 331 332 332 332 333 333 333 334 334 335 335 335 335 335 335 335 336 336 336 336 337 337 337 337 337 337 338 338 338 337 337 336 336 337 336 335 334 334 334 334 335 334 336 339 341 341 341 341 341 342 341 340 339 339 338 338 339 341 342 341 341 341 339 337 337 339
313 312 311 310 311 311 313 314 312 312 311 311 313 313 315 322 325 328 330 332 336 337 336 334 332 331 331 331 331 331 330 330 331 331 331 331 331 331 332 333 334 334 334 334 335 335 335 335 336 336 336 336 337 337 337 337 337 337 337 338 337 336 337 336 335 337 336 334 334 332 330 332 334 335 338 340 341 342 341 341 342 342 341 339 340 339 338 340 342 342 341 340 339 339 338 339 340
313 312 311 310 311 312 314 315 314 312 310 311 315 313 317 325 325 327 329 331 335 336 334 332 332 331 330 331 332 331 330 330 331 332 332 330 330 330 330 331 331 331 332 333 333 333 333 334 334 335 334 335 336 336 336 337 336 336 336 337 336 336 336 335 335 336 336 334 335 333 327 327 331 334 338 339 338 340 341 341 342 342 341 340 340 340 339 341 342 343 342 340 339 340 339 340 340
314 313 311 310 312 313 311 314 315 313 311 315 317 314 320 327 325 327 329 331 333 332 332 331 330 330 330 330 331 331 331 331 331 331 332 331 330 330 330 330 330 330 330 331 331 332 332 332 333 333 334 334 334 335 335 336 336 336 335 335 335 335 335 335 335 335 335 334 334 334 332 329 328 330 337 338 335 338 340 341 342 342 342 341 341 340 340 340 342 343 342 341 340 340 340 338 338
314 314 312 311 313 313 312 315 317 314 315 319 318 314 320 326 325 326 329 331 332 330 330 330 329 329 329 330 331 331 331 331 331 330 331 331 330 330 330 329 330 330 330 330 330 331 331 332 332 332 333 333 333 334 334 335 336 336 335 335 334 334 334 334 334 335 336 336 334 334 336 336 332 330 334 336 336 338 338 339 341 342 342 342 342 341 339 339 340 341 342 342 341 341 340 337 336
312 314 315 313 314 314 315 316 315 312 312 317 316 311 315 321 323 325 328 331 332 330 330 330 329 329 329 330 330 330 330 329 330 330 330 331 331 330 330 330 330 330 330 329 329 330 330 331 332 332 332 332 333 333 333 334 335 335 335 335 335 334 334 334 334 335 336 336 336 335 336 337 337 334 333 334 336 337 336 338 341 342 342 342 342 341 340 340 339 339 340 341 342 341 340 336 335
311 314 315 315 315 314 315 315 312 309 310 316 318 312 312 316 321 324 326 329 331 331 330 329 329 330 329 330 330 330 329 328 329 329 329 331 330 331 331 330 330 330 329 329 329 329 329 330 331 331 331 332 333 333 333 333 334 335 335 335 335 335 335 334 334 335 336 336 336 336 335 336 336 335 334 333 335 337 337 338 340 339 339 340 342 342 341 341 340 338 339 340 341 340 338 335 334
312 314 315 315 314 314 315 314 312 310 312 317 319 314 311 313 319 323 325 326 327 328 329 326 327 330 330 330 330 329 329 327 327 326 327 329 329 329 330 329 329 329 328 328 329 329 329 329 330 331 331 331 332 333 333 333 333 334 334 335 335 335 335 335 335 335 335 335 335 335 333 334 334 335 335 333 335 337 336 336 336 335 336 337 340 342 341 341 340 338 340 340 339 338 336 334 333
314 315 315 315 315 315 314 313 312 312 313 314 315 315 311 310 317 322 325 325 324 325 327 326 327 330 330 330 330 329 329 327 326 325 327 328 328 328 328 328 328 328 328 328 329 328 328 329 330 330 330 331 332 332 333 333 333 334 334 334 335 336 336 335 335 336 336 335 334 334 333 333 333 334 336 335 335 335 335 337 336 334 335 335 336 338 339 340 340 340 341 341 339 338 336 334 334
315 315 315 315 316 315 315 314 313 312 313 313 314 315 311 309 316 322 325 326 325 325 327 327 329 330 330 331 331 330 329 327 325 326 328 328 328 328 328 327 327 327 328 328 328 328 328 328 329 329 330 330 331 332 332 332 333 334 334 334 335 335 335 335 335 335 336 335 334 334 334 333 333 334 336 337 336 335 334 338 339 336 334 334 334 335 337 339 341 342 341 340 339 337 335 334 335
315 315 315 315 315 315 315 315 313 314 316 314 313 315 313 310 313 319 323 325 324 325 327 327 329 330 330 331 331 330 329 327 326 327 328 328 328 327 327 326 326 327 327 327 327 328 329 328 328 328 329 329 330 331 332 332 332 333 334 334 335 335 335 335 335 335 336 336 335 334 334 333 334 335 336 337 337 336 334 336 339 338 336 334 334 334 335 338 340 340 340 339 338 336 334 334 335
315 315 314 314 315 315 314 314 314 315 315 314 313 315 315 312 311 315 321 322 321 324 325 326 328 330 330 330 330 330 329 328 326 326 328 328 328 327 326 325 326 326 327 327 327 327 328 328 328 328 328 329 329 330 331 332 332 332 333 334 335 335 335 335 335 335 336 336 335 334 333 333 334 336 337 338 338 338 337 336 337 339 338 335 333 334 335 338 339 339 339 338 337 336 335 335 335
315 315 314 315 315 315 316 315 315 315 313 313 314 314 314 313 313 316 320 319 320 323 324 324 326 327 329 331 330 330 329 328 327 327 327 328 328 327 327 326 326 326 326 327 327 327 328 328 328 328 328 328 328 329 330 330 331 331 332 334 334 335 335 335 335 335 336 337 336 334 333 333 335 336 338 338 338 338 338 338 338 338 338 336 336 336 336 337 340 339 338 337 336 335 335 335 335
315 314 314 316 316 316 319 317 315 315 313 313 314 314 314 312 313 317 319 319 321 324 325 326 327 327 328 330 330 329 328 328 328 327 326 327 328 328 327 326 326 326 327 327 327 327 327 327 327 328 328 327 328 328 329 330 330 331 331 332 334 334 334 335 335 335 336 336 336 336 335 335 336 337 338 338 338 338 338 338 339 338 338 338 339 338 337 338 340 339 338 336 336 335 334 335 335
316 316 315 315 315 318 320 317 315 315 314 314 315 315 313 312 316 320 320 321 323 324 325 325 326 327 328 329 329 329 329 328 328 327 326 327 327 326 326 326 326 326 326 326 327 326 326 325 326 327 327 327 327 328 328 329 329 330 331 331 333 334 334 334 335 335 336 336 336 336 336 336 336 336 337 337 337 338 338 338 338 339 339 339 339 339 339 340 340 339 338 336 335 335 334 334 335
317 316 316 315 315 318 319 318 318 318 316 315 315 315 314 315 319 319 319 320 321 323 324 323 323 325 326 328 329 329 329 329 328 327 326 326 326 326 326 325 325 325 325 326 326 326 326 325 324 325 326 326 327 327 327 328 329 329 330 330 332 333 333 334 334 334 335 335 336 336 336 336 336 336 336 336 337 337 337 338 338 338 339 339 339 339 340 340 339 339 338 336 336 335 335 335 335
317 316 316 316 316 317 317 318 320 319 317 316 314 314 314 315 317 318 319 320 321 323 323 323 323 323 325 328 329 329 330 329 328 327 325 326 326 325 325 325 325 325 324 325 325 325 325 324 323 324 325 325 325 326 327 327 328 328 329 329 329 330 331 332 333 333 333 333 334 335 335 336 336 335 336 336 337 337 336 337 338 338 339 338 338 339 339 339 340 339 338 337 336 336 335 335 335
317 316 316 316 317 316 316 318 319 318 318 317 314 315 315 314 316 319 320 320 321 322 323 323 324 324 325 327 327 329 329 329 328 326 326 326 326 325 325 324 324 324 324 324 324 324 324 324 323 323 324 324 324 325 326 326 327 327 327 328 328 329 329 330 330 331 331 332 332 332 333 334 334 334 334 335 335 336 336 336 337 337 337 336 335 337 339 338 338 339 338 338 337 336 336 335 336
316 317 317 316 318 319 318 318 319 319 320 319 316 316 316 314 315 318 318 318 319 321 322 322 322 324 325 326 327 328 328 329 328 325 325 326 326 325 324 324 324 323 323 323 323 323 323 324 323 323 323 323 323 324 325 326 326 326 326 327 327 328 328 329 329 330 330 331 331 332 332 332 332 332 333 333 334 335 335 335 335 336 336 336 335 336 338 338 338 339 338 337 337 336 336 336 336
316 316 317 316 318 319 319 319 319 319 320 319 317 317 316 315 316 318 319 319 319 320 320 320 320 321 324 325 326 327 328 328 328 325 325 326 325 324 324 323 322 322 322 322 322 322 322 322 322 322 322 322 322 323 324 325 325 325 326 327 327 328 328 329 329 330 330 330 331 331 331 331 331 332 332 332 333 333 334 334 334 334 335 335 335 336 337 337 338 338 337 337 338 337 337 337 336
317 317 317 318 318 318 318 318 317 317 319 319 319 318 315 316 319 319 319 319 319 319 319 319 319 320 322 324 325 327 328 328 328 326 325 325 325 323 323 322 321 321 321 321 321 321 321 321 321 321 321 321 321 322 323 324 324 325 326 326 326 327 328 328 329 331 331 331 330 330 331 331 331 331 332 332 332 332 333 333 333 333 334 334 335 335 335 336 337 337 337 338 338 338 338 337 336
318 318 318 319 319 319 320 319 317 317 318 317 319 319 316 317 319 318 318 319 319 319 319 318 319 320 322 324 326 327 328 327 327 326 325 326 325 323 322 321 320 320 320 320 320 321 321 321 320 320 319 319 319 320 322 323 324 324 325 325 325 326 326 327 328 330 331 331 331 330 330 330 331 331 331 331 332 332 332 332 333 333 333 334 334 335 335 335 336 337 338 338 337 337 338 338 337
Wind_Speed
3 4 6 5 4 5 6 6 6 4 5 7 6 6 4 4 4 5 5 5 4 2 2 2 3 6 3 3 1 3 7 6 4 2 1 5 13 18 14 19 26 25 24 23 23 22 21 21 22 23 24 23 23 24 24 24 24 23 23 23 22 21 21 20 20 19 19 18 18 17 17 16 16 16 17 18 17 17 19 19 20 20 20 19 19 19 19 19 19 18 18 18 18 18 17 17 17
1 4 6 4 6 6 4 4 7 5 5 7 6 6 1 3 5 7 6 2 1 1 1 2 5 6 4 2 1 1 6 8 6 5 5 10 17 15 16 22 25 26 25 24 23 23 22 22 23 23 23 23 23 23 23 23 23 22 22 21 21 23 23 22 21 21 21 20 19 18 18 17 17 17 17 18 17 17 18 18 19 19 19 19 19 18 17 17 18 18 17 17 16 16 16 17 16
3 5 6 6 7 7 3 4 8 6 6 7 6 4 1 4 7 6 1 2 1 1 2 4 5 3 4 5 2 2 5 8 6 6 7 13 14 13 20 23 24 26 26 25 23 22 21 22 24 23 22 22 22 22 23 23 22 20 20 22 24 24 23 22 22 22 21 20 19 18 18 18 17 17 16 17 16 16 16 17 17 17 17 17 17 16 16 16 16 16 16 16 15 16 17 16 16
4 5 7 7 7 6 5 6 7 7 7 7 5 4 3 8 6 3 1 0 4 5 5 5 4 1 2 2 5 5 5 6 6 5 7 10 11 16 22 23 24 24 24 24 22 21 21 22 24 23 22 21 21 22 22 23 21 20 22 24 25 23 21 20 20 20 20 19 18 18 17 18 18 17 16 16 15 15 16 17 16 16 16 16 16 15 15 15 15 15 15 14 15 16 16 15 15
4 6 6 8 5 4 6 6 5 7 7 5 3 4 2 6 3 2 2 3 6 7 6 5 2 1 4 6 2 1 3 3 6 6 8 9 12 19 21 22 22 21 22 22 21 21 22 24 24 24 23 22 22 22 22 23 22 23 25 25 23 21 20 19 19 18 18 18 18 18 18 17 16 16 15 15 14 15 16 16 16 16 16 16 15 14 14 14 14 14 13 14 15 16 15 14 14
6 7 6 8 4 1 5 6 5 8 6 4 3 3 3 2 3 2 3 4 8 9 7 5 2 3 5 5 4 5 4 1 4 7 9 11 16 20 20 21 20 19 20 20 21 21 23 24 24 24 24 23 23 23 23 23 24 26 25 23 21 21 20 19 18 18 17 17 17 17 17 16 15 14 14 14 14 14 14 14 15 15 14 14 14 14 13 12 13 13 13 14 14 14 14 13 13
7 7 6 7 3 2 7 7 6 7 4 4 6 1 4 4 2 4 4 6 8 9 8 5 2 3 4 3 6 8 8 6 5 7 10 15 18 21 21 20 20 18 18 19 20 22 24 25 24 24 23 23 22 22 22 23 24 25 24 22 21 20 20 19 18 18 17 16 17 17 16 15 14 14 13 14 14 13 13 13 14 14 14 13 13 13 12 12 12 13 13 13 13 13 13 12 12
8 6 4 6 6 5 8 6 6 5 2 4 7 5 3 4 4 5 5 7 8 9 9 6 2 3 3 2 3 6 11 10 8 11 13 17 18 20 21 20 21 19 17 18 21 24 24 24 25 23 23 22 21 21 21 23 23 24 24 22 21 20 19 19 18 17 17 16 17 16 15 14 13 12 13 13 13 12 12 12 13 14 13 12 12 13 12 13 12 12 12 12 12 12 12 12 11
9 6 2 6 7 5 7 6 6 5 3 5 6 5 5 6 5 6 7 7 7 6 6 7 4 3 3 2 4 7 9 10 11 13 14 17 16 17 20 20 22 20 17 18 21 24 23 23 24 23 22 20 20 20 21 22 22 23 23 21 21 20 19 19 18 17 17 16 16 16 14 13 13 12 12 12 13 13 11 12 13 12 12 11 12 13 13 13 12 11 11 11 12 12 12 11 11
7 6 4 6 7 6 7 6 5 4 5 6 5 6 5 7 6 7 9 9 9 6 3 5 4 2 5 3 5 6 6 9 11 13 14 17 16 16 19 19 21 21 19 19 21 23 22 22 22 22 21 19 19 20 21 22 23 22 21 20 20 19 19 18 18 17 17 17 16 15 14 13 13 12 11 11 12 13 12 13 12 10 10 11 13 14 13 12 12 10 10 11 11 11 11 11 10
6 5 4 6 7 6 6 6 5 4 4 5 5 5 5 6 7 8 10 10 10 10 8 6 5 3 5 2 3 5 6 9 11 13 14 15 14 14 17 17 19 19 19 21 20 22 23 21 20 21 20 19 18 19 21 22 22 20 19 19 18 18 18 18 17 17 17 16 15 14 13 13 13 13 12 11 12 14 13 13 12 10 10 12 14 14 13 13 12 11 11 11 10 11 11 11 10
6 6 5 6 6 5 5 5 5 4 5 6 6 5 4 6 8 9 9 8 7 9 9 6 7 6 6 3 3 7 8 9 12 13 13 13 11 12 15 17 18 18 20 20 20 21 22 21 19 20 20 19 18 19 20 20 20 19 18 18 18 18 17 18 17 17 16 15 14 13 13 13 13 13 12 11 12 14 14 13 12 10 11 14 14 14 14 13 13 12 12 11 10 11 10 11 11
6 6 7 6 4 4 3 4 4 4 5 6 4 3 2 6 9 10 8 8 8 9 7 5 9 9 5 4 6 9 9 9 13 14 14 13 10 11 15 19 19 18 20 19 18 20 20 20 19 18 19 18 19 19 18 18 19 18 18 17 17 17 16 17 17 16 16 15 14 13 13 13 13 13 12 11 11 12 13 13 12 11 14 16 15 15 15 13 13 13 12 11 10 10 10 11 11
5 4 6 4 3 4 4 4 5 5 4 4 3 1 4 6 8 8 9 9 6 4 7 8 5 9 6 4 6 7 8 11 14 16 16 14 12 12 15 19 18 17 19 19 18 18 18 18 18 19 19 18 19 19 18 18 18 18 17 17 17 16 16 16 16 16 15 14 13 12 12 12 12 12 12 11 11 12 13 13 13 14 17 17 15 15 14 14 13 12 11 10 10 10 10 11 11
4 3 5 4 4 5 5 4 4 5 3 4 2 1 6 4 4 7 10 7 5 5 9 8 2 4 4 4 4 7 11 13 14 16 16 14 14 15 15 17 19 18 18 19 18 18 18 18 18 19 18 18 19 19 18 18 18 18 17 17 16 15 15 15 15 15 15 14 13 12 12 12 11 11 11 11 11 13 13 13 14 15 17 16 15 15 14 13 13 12 11 10 9 9 9 10 11
4 3 5 4 5 6 5 4 4 4 2 4 3 2 6 3 4 8 6 2 7 7 6 6 1 2 5 8 9 13 14 15 15 15 16 14 15 17 15 15 19 18 15 16 17 17 17 17 18 18 17 18 18 18 18 17 18 18 17 17 16 15 15 14 15 14 14 14 13 12 12 11 10 10 11 11 12 14 14 13 14 14 16 17 16 15 14 13 12 11 10 9 9 8 9 10 10
4 5 6 5 6 6 6 5 3 1 3 4 3 2 5 4 5 5 3 3 8 10 7 6 5 6 10 13 15 18 17 16 16 15 15 12 14 16 15 14 16 15 14 14 15 15 16 16 17 17 17 17 18 18 17 17 18 18 17 16 16 16 15 14 14 14 14 13 13 12 11 10 9 10 10 11 12 14 15 14 13 13 15 16 16 15 14 13 12 10 9 8 7 7 8 9 10
5 5 6 5 6 5 4 2 2 2 3 4 3 2 4 5 7 6 7 7 9 10 9 8 9 12 14 17 17 18 18 17 16 14 14 11 11 14 14 15 15 15 15 14 14 15 15 15 16 16 16 16 17 17 16 17 17 17 17 16 16 16 15 14 14 14 14 13 13 11 10 9 9 10 10 10 11 14 15 14 13 14 15 15 15 15 14 13 11 10 8 7 7 7 8 9 9
6 4 5 5 5 5 3 2 4 4 5 4 3 2 4 5 7 8 11 11 12 11 10 8 10 13 15 17 17 17 17 16 14 13 12 11 11 12 13 14 14 14 14 14 14 14 14 14 15 15 15 15 15 14 14 16 17 17 17 16 16 15 15 15 14 13 13 14 12 10 9 8 8 9 9 10 13 15 15 14 14 14 15 15 15 15 14 13 11 10 8 7 8 8 8 7 8
5 4 5 5 4 5 3 2 4 6 6 5 3 2 3 5 5 7 10 13 13 10 8 7 8 11 14 16 15 16 15 14 13 12 11 10 10 9 10 11 12 12 12 12 13 13 12 13 14 14 14 14 14 12 13 14 14 15 15 16 15 15 14 13 13 12 11 12 11 9 8 8 9 9 10 11 13 15 14 14 15 15 15 15 14 14 12 11 11 10 8 8 7 6 6 6 7
3 5 5 4 5 4 4 1 5 7 6 5 2 3 4 5 5 5 8 11 11 7 6 9 11 13 15 16 14 14 15 14 14 13 12 10 9 8 8 8 9 10 10 11 11 12 11 12 13 14 13 13 12 12 12 12 12 13 13 14 14 14 13 12 12 11 10 11 10 9 9 9 9 9 9 9 11 13 14 15 15 14 14 13 12 12 10 9 9 8 7 6 5 6 7 7 7
3 5 3 3 5 3 5 2 5 7 6 4 2 2 5 5 6 4 5 7 5 5 7 10 14 15 15 16 14 14 15 14 14 13 12 11 9 8 7 5 6 8 9 9 10 10 10 10 11 13 13 12 11 11 11 12 12 11 11 12 12 13 12 11 11 11 10 10 9 9 9 9 8 8 8 8 9 11 13 14 13 12 12 12 10 9 9 8 8 7 6 6 6 7 8 7 7
5 5 3 2 4 2 3 1 5 7 7 5 4 3 4 6 9 7 6 3 2 5 8 11 15 16 17 16 14 14 13 13 14 14 12 11 9 7 6 6 6 6 7 8 8 9 9 10 10 11 12 11 12 11 11 11 11 10 10 11 11 11 11 11 11 10 11 10 9 9 8 8 7 8 8 7 7 9 11 12 11 11 11 10 9 8 8 8 7 7 7 7 8 8 8 8 7
6 3 7 6 3 4 2 3 5 7 7 5 3 1 3 4 7 7 8 7 4 7 10 13 17 18 17 15 13 13 13 14 15 14 13 11 9 7 6 7 6 4 6 7 8 9 10 10 11 11 12 12 12 11 11 11 11 10 10 10 10 10 10 10 10 10 11 10 9 9 7 7 7 7 8 8 7 7 9 10 10 11 10 9 8 8 8 7 7 7 7 7 7 8 8 7 7
7 3 5 5 4 6 4 4 5 6 5 3 1 3 4 5 7 8 8 8 8 10 12 15 17 17 15 14 14 13 13 14 15 14 12 10 8 7 5 6 6 5 6 7 7 7 9 10 11 11 12 12 12 12 11 10 10 10 10 10 9 10 10 9 9 10 11 10 10 9 7 6 7 7 7 8 7 7 7 8 9 10 9 9 8 7 7 7 7 6 6 6 7 7 7 6 6
6 5 3 5 5 5 4 4 4 3 2 3 2 6 7 6 8 8 7 7 9 11 13 15 16 16 14 12 12 12 12 13 13 12 11 9 8 7 5 4 5 6 7 8 7 6 7 8 10 11 12 12 12 12 10 10 10 10 10 9 8 9 9 9 9 9 10 10 9 9 7 6 6 7 7 7 7 7 7 8 8 9 8 8 8 7 6 6 6 5 5 5 6 6 6 5 5
3 5 3 5 5 4 3 2 2 2 2 3 3 6 6 5 3 3 6 7 10 12 13 15 15 15 13 11 11 11 11 11 11 10 9 8 7 7 6 5 6 7 8 9 8 8 8 9 9 10 11 12 11 11 10 10 10 9 9 9 9 9 9 9 9 8 9 9 9 9 8 6 6 6 7 7 7 8 8 7 8 8 8 8 8 7 6 5 5 4 4 5 5 4 5 4 4
1 4 5 7 6 5 6 2 1 3 3 2 4 3 4 4 2 4 7 7 10 13 13 14 13 14 13 12 10 9 9 9 9 8 7 6 5 5 6 7 6 6 7 9 9 9 9 9 9 10 10 11 11 10 9 10 10 9 9 9 9 10 10 10 9 8 8 9 9 9 8 7 6 6 7 8 8 8 8 8 8 8 8 8 7 7 6 5 4 4 3 4 4 4 4 3 3
3 4 6 8 7 8 8 4 2 4 3 1 4 3 6 4 6 7 6 7 11 12 12 13 12 12 12 11 9 7 8 8 6 6 5 3 2 3 5 5 4 5 5 7 9 9 9 9 10 10 9 10 10 9 9 10 9 9 9 9 9 10 11 11 9 8 8 8 10 10 9 8 7 6 7 9 9 9 9 8 8 8 8 8 7 6 6 5 4 3 3 3 3 3 4 3 3
5 5 7 6 7 8 9 6 5 5 2 0 6 6 8 7 8 8 6 8 12 11 10 11 11 10 10 9 8 7 7 7 5 5 4 3 2 2 3 3 3 4 3 5 8 8 8 9 9 10 9 9 9 8 8 9 9 8 9 9 9 10 11 10 9 8 8 8 9 10 10 9 8 7 7 9 9 9 9 9 8 8 8 7 7 6 6 5 4 3 3 4 4 3 4 4 3
5 6 6 5 6 8 11 7 6 8 2 2 7 6 7 8 8 7 7 8 11 11 10 10 10 9 8 8 8 7 7 7 7 6 6 5 3 3 3 3 3 3 2 3 5 6 8 8 9 9 9 9 9 9 8 8 8 8 8 8 9 9 9 9 9 8 7 7 7 9 10 10 9 8 8 8 9 9 9 10 9 9 9 8 7 7 6 5 4 3 3 3 4 4 4 4 4
4 6 6 5 5 6 11 9 7 7 4 5 8 7 7 9 8 7 7 8 11 11 10 10 9 9 8 8 7 7 7 7 8 8 7 6 5 4 4 5 4 3 2 2 2 4 7 7 8 8 8 8 9 10 10 8 7 7 8 8 9 9 9 9 8 8 7 6 6 7 9 10 10 10 10 9 9 9 10 10 11 9 9 10 9 8 7 6 5 4 3 3 3 4 5 5 4
5 6 5 6 7 5 8 10 8 5 5 8 10 9 5 8 9 8 8 9 10 9 9 9 9 9 8 7 6 6 6 6 7 7 6 6 5 5 5 5 4 3 2 1 1 2 4 4 6 7 7 8 9 9 10 10 8 8 9 9 10 10 9 9 8 9 11 9 6 7 9 11 11 11 11 11 10 10 10 11 11 11 10 11 10 9 8 7 5 5 4 3 4 4 4 5 4
5 5 3 5 7 4 4 9 8 6 7 9 10 10 6 7 10 9 8 10 10 9 8 9 8 8 7 6 6 5 6 5 6 6 5 6 7 6 5 5 4 3 3 2 1 0 2 2 3 4 5 6 7 7 9 10 10 10 10 11 10 9 9 9 8 9 13 14 11 9 10 11 12 12 13 12 11 11 10 11 11 12 12 11 11 10 9 8 7 5 5 4 3 4 3 4 3
4 5 4 4 6 6 5 4 6 7 10 10 10 12 8 8 10 9 9 11 11 10 8 7 7 7 6 5 6 5 6 6 5 5 4 5 7 7 6 5 5 3 3 3 2 1 1 2 2 2 2 3 4 5 7 9 10 9 9 9 9 8 8 9 9 9 11 13 13 11 11 12 13 13 14 13 12 12 11 11 11 12 12 12 11 11 10 9 8 7 5 4 3 3 3 2 3
1 3 4 4 5 6 5 0 3 3 9 11 12 12 10 10 11 11 11 11 11 10 9 7 6 6 6 6 5 5 6 5 5 4 4 5 6 6 6 5 5 3 3 3 2 1 1 1 2 3 3 3 4 5 6 8 9 8 8 9 9 10 10 10 10 10 11 11 12 12 12 13 13 13 14 14 14 13 12 12 12 12 12 13 12 12 11 10 9 8 6 5 4 4 4 4 4
3 4 4 4 5 4 2 1 1 2 8 11 13 12 11 11 12 12 11 12 12 11 11 10 8 8 7 7 7 6 6 5 5 5 5 5 5 5 5 5 4 4 3 2 2 1 1 0 1 3 4 5 5 5 7 8 8 8 10 11 12 12 11 11 11 12 12 11 12 12 11 12 12 13 14 14 14 14 14 13 13 13 13 13 13 13 12 10 9 8 7 6 5 5 5 5 4
3 5 5 5 6 3 3 1 1 4 8 9 10 12 10 10 11 11 12 13 13 13 13 12 11 10 8 8 8 7 6 5 6 6 5 6 6 5 4 4 4 3 3 2 2 1 1 1 1 2 3 4 5 6 7 8 8 10 12 12 13 12 10 10 11 11 12 11 12 14 14 12 12 13 14 14 14 15 15 14 13 13 14 14 13 13 12 10 9 9 8 7 6 6 6 5 5
4 5 5 5 5 3 3 2 1 5 8 7 10 12 9 9 10 11 13 13 11 11 12 12 12 10 9 8 8 7 7 6 6 6 6 6 6 5 5 4 4 3 3 3 3 2 1 1 2 3 4 4 5 6 8 8 8 10 12 12 12 12 11 11 12 12 13 14 13 14 17 17 14 13 13 16 17 16 16 15 14 14 14 14 13 13 13 12 10 10 9 8 7 7 7 6 5
5 5 6 6 4 4 3 3 3 6 7 5 9 11 7 7 9 10 12 12 10 11 13 12 11 10 9 8 7 7 8 7 6 6 6 6 6 5 5 4 4 4 3 3 3 3 2 2 2 2 3 4 6 7 8 8 9 9 10 11 11 11 12 12 12 12 14 16 15 14 16 17 17 14 14 18 19 16 16 16 15 14 14 14 13 13 13 13 12 11 10 9 9 8 8 7 6
4 4 6 6 3 5 4 2 3 6 6 5 8 9 6 8 11 10 10 10 11 12 12 12 12 11 9 7 6 6 7 6 6 7 6 6 6 5 5 5 4 4 4 4 3 3 2 2 2 2 2 3 5 7 8 9 9 10 9 9 9 10 11 11 12 13 14 15 16 16 16 16 17 17 16 18 19 19 19 17 15 14 13 14 14 13 13 14 13 12 11 11 10 10 8 7 7
4 3 4 5 5 4 3 2 4 6 6 8 10 9 7 10 13 11 9 10 11 11 12 12 12 12 10 8 8 7 7 6 6 7 6 6 6 5 6 5 5 4 4 4 3 2 2 2 2 2 1 2 4 5 7 9 10 11 11 10 9 10 10 11 12 13 14 15 16 17 16 16 17 18 18 18 20 21 20 17 15 14 14 14 14 13 14 14 14 13 12 12 12 11 9 7 7
4 1 2 4 5 5 5 5 7 6 2 5 9 9 6 9 13 12 11 12 13 11 12 13 12 12 11 10 9 9 9 8 7 7 7 7 6 6 6 5 5 5 4 4 3 2 1 1 1 1 1 2 4 4 6 8 10 12 13 13 12 12 12 12 13 13 14 15 15 17 17 17 18 18 18 19 20 20 19 17 17 16 16 15 13 15 15 14 14 14 13 12 12 11 11 9 8
3 2 2 6 6 6 7 7 7 5 2 2 8 10 7 6 10 13 14 14 15 14 14 14 13 13 12 11 10 10 9 9 8 8 8 8 7 6 5 5 4 4 4 4 3 3 2 1 0 0 1 2 4 5 6 8 10 12 13 14 13 14 14 14 14 14 16 16 15 17 19 20 20 19 19 19 19 20 21 20 19 18 18 17 15 16 17 16 15 13 12 12 11 11 11 10 9
2 2 3 6 6 7 7 7 7 5 3 5 8 8 9 7 6 11 13 14 16 17 16 16 15 13 12 11 11 10 10 9 9 9 9 9 8 6 5 5 4 4 4 4 4 3 3 2 1 1 1 2 4 5 6 8 10 11 12 13 12 13 13 14 14 14 15 16 17 18 19 19 20 21 21 20 19 19 20 20 19 19 21 20 17 17 16 15 15 13 12 12 12 11 10 10 9
1 1 5 5 6 7 7 7 7 5 6 8 7 9 9 8 6 8 10 11 14 14 13 13 13 12 12 11 11 11 10 9 9 9 10 10 9 7 5 5 4 4 4 4 4 3 3 3 2 2 1 2 4 5 6 7 9 10 12 12 11 11 12 13 14 13 13 16 17 17 18 19 18 21 22 21 19 19 19 17 16 18 21 21 19 19 18 15 15 13 12 12 12 11 11 10 10
1 4 7 7 7 7 6 6 6 6 6 9 11 9 8 8 6 7 8 9 11 11 10 11 13 13 12 11 11 12 11 10 9 10 11 11 10 8 7 6 5 5 5 4 4 3 3 2 2 2 2 2 3 5 6 7 8 9 11 11 11 11 11 12 13 14 13 15 16 15 17 20 19 21 22 20 18 19 19 18 16 16 18 21 21 20 20 17 15 14 13 12 12 12 12 11 10
5 6 7 7 7 6 6 7 6 7 8 8 9 9 8 9 7 5 6 8 11 12 11 13 15 15 13 12 12 12 11 11 10 10 10 11 10 10 8 7 6 6 5 5 4 4 3 2 2 2 2 2 2 4 5 6 7 8 9 10 11 11 12 13 13 14 14 15 16 16 17 19 20 21 20 17 18 18 17 18 18 16 16 21 22 22 22 19 15 14 13 13 13 13 13 12 12
7 7 7 7 6 5 6 7 6 8 7 4 4 6 8 9 8 5 4 6 9 10 10 12 13 15 14 13 12 12 11 11 11 10 10 10 11 11 10 9 8 7 6 5 4 4 3 2 1 1 2 2 2 3 5 6 6 7 8 9 10 11 12 13 13 13 14 14 15 17 17 18 19 18 17 17 18 18 17 17 18 18 18 19 22 23 24 21 15 13 13 13 14 14 14 14 13
7 7 6 7 7 6 7 7 6 7 6 4 4 4 8 8 7 6 5 4 3 3 5 6 7 11 12 13 13 12 13 13 11 11 10 10 11 11 10 10 9 7 7 5 4 4 3 2 1 1 1 1 2 3 5 6 6 6 8 8 9 10 12 13 13 13 13 13 14 15 16 16 16 16 16 17 17 17 18 18 18 19 18 19 21 23 23 19 15 14 14 14 14 14 14 14 14
7 5 6 8 6 4 5 6 6 6 5 4 5 4 7 6 1 2 2 1 1 1 3 4 5 7 8 10 13 13 13 13 12 11 11 11 12 11 10 9 9 8 7 6 5 4 3 2 1 1 1 2 3 4 4 5 5 5 6 6 7 9 11 12 13 13 13 13 14 14 14 14 15 15 16 16 16 17 18 18 18 19 19 19 20 21 19 17 16 16 14 15 15 15 15 15 15
4 3 7 7 4 4 4 4 4 5 5 5 5 5 5 2 4 5 3 2 3 3 3 5 6 7 8 9 12 12 12 12 12 12 11 12 12 11 10 10 9 7 6 5 5 4 3 2 1 1 2 3 3 4 4 5 5 4 5 5 6 8 10 11 12 13 13 13 14 15 15 15 15 16 15 16 17 17 18 17 18 19 20 20 19 18 18 17 17 18 17 16 16 16 16 16 16
2 4 5 2 2 4 6 3 1 2 7 7 6 7 5 4 5 7 6 5 5 5 5 5 6 8 9 10 11 12 13 13 13 12 12 12 13 11 11 10 8 7 6 5 5 4 3 1 1 2 3 4 4 4 5 5 5 4 5 5 6 7 9 11 12 13 13 13 14 14 15 14 15 16 16 15 16 17 18 18 18 19 20 22 21 18 19 19 18 18 19 18 18 17 17 17 17
3 3 1 2 1 4 6 5 3 5 8 7 7 9 8 7 5 5 6 6 7 7 6 5 6 7 10 10 11 13 13 13 13 13 12 13 13 12 11 9 8 8 6 5 4 3 2 2 2 3 4 5 5 5 5 5 5 5 5 5 6 7 8 10 12 12 13 13 14 14 15 15 15 16 16 16 17 18 19 19 19 19 20 23 24 22 20 21 20 20 21 20 19 18 18 18 17
5 3 1 2 3 4 5 5 5 7 7 6 8 9 7 8 6 4 5 7 7 6 4 5 7 8 9 9 10 12 12 12 12 12 11 11 13 13 11 9 9 9 6 4 4 3 3 3 3 4 5 5 5 6 6 6 5 5 5 5 6 6 6 8 9 11 13 14 15 15 16 16 16 17 17 17 18 19 19 20 21 21 20 21 24 23 22 23 22 21 21 21 20 19 19 18 17
4 4 3 4 4 3 4 4 4 6 6 6 7 7 6 5 3 2 3 4 4 5 4 6 8 8 8 8 9 10 11 12 12 11 10 11 13 13 11 10 9 8 6 4 4 4 4 4 5 5 5 5 6 6 7 7 6 6 6 6 6 6 6 7 7 9 11 13 14 14 15 16 16 16 17 18 19 19 20 21 21 22 22 22 23 24 24 25 24 22 22 22 20 20 19 19 18
4 5 5 5 3 3 4 5 5 6 6 6 7 7 5 1 3 1 3 4 4 5 6 7 8 7 8 7 8 9 10 11 12 11 10 12 13 12 11 10 8 7 5 4 5 5 6 6 5 5 5 6 6 6 6 7 6 6 7 7 7 7 7 7 7 7 8 10 12 13 13 14 15 15 16 17 19 19 21 22 23 24 24 24 24 25 26 26 26 25 23 22 21 19 19 19 18
5 4 4 5 4 4 5 6 6 5 6 7 7 8 6 2 3 2 4 3 2 2 4 5 6 6 6 7 8 9 10 11 12 11 10 11 12 12 11 10 8 5 5 6 6 7 7 7 6 5 5 5 5 5 6 6 7 6 7 7 8 8 8 7 7 8 8 9 11 11 12 13 14 14 15 16 17 19 21 23 24 25 26 25 23 24 26 28 28 25 23 22 20 19 19 19 18
Wind_Direction
136 166 168 164 189 203 201 213 233 212 240 248 241 244 201 200 277 278 214 184 201 220 289 260 134 120 117 305 305 63 33 7 5 9 63 97 145 151 149 145 143 141 140 141 141 143 142 141 137 138 141 140 139 138 136 136 136 137 138 136 133 131 130 129 128 127 125 122 119 118 117 117 116 113 109 104 102 100 100 103 104 106 107 108 108 106 107 109 107 103 102 101 97 92 89 87 83
161 172 167 182 200 212 198 202 245 220 229 249 231 238 172 157 227 239 226 184 201 333 266 173 143 160 194 190 179 126 69 37 42 69 72 124 144 148 153 147 143 142 140 142 142 143 146 145 139 137 141 141 142 140 138 137 136 137 139 136 132 130 128 127 126 126 124 122 119 116 114 113 113 115 113 108 104 102 101 103 103 105 105 105 105 104 104 105 104 103 101 100 95 89 87 86 83
187 178 177 193 200 223 221 199 243 237 230 247 225 199 161 226 225 219 224 56 177 207 183 166 159 186 231 174 107 39 52 34 60 89 110 139 144 149 156 148 143 141 139 142 143 144 146 147 143 141 142 140 141 139 137 137 135 137 138 135 131 129 127 126 126 126 125 124 121 118 115 111 109 111 114 113 108 107 106 104 103 104 104 102 104 106 104 101 102 102 101 99 90 84 83 82 79
171 191 198 204 198 221 225 211 236 248 235 243 232 158 201 241 230 201 134 309 208 193 190 181 168 276 313 82 67 60 52 24 38 67 121 134 142 150 153 147 142 138 138 141 141 143 144 149 147 143 142 138 139 136 136 137 136 138 138 134 130 128 126 125 125 125 124 123 122 119 117 113 110 107 109 114 111 111 112 110 109 109 108 107 106 106 103 102 102 101 99 94 83 77 78 77 75
174 197 213 226 220 216 226 228 231 241 240 251 245 139 197 240 199 193 228 241 220 208 204 188 175 127 65 53 42 99 67 29 40 64 111 116 139 148 148 142 136 134 138 140 139 141 145 149 147 144 142 140 140 137 138 138 137 139 138 132 129 128 126 125 124 122 120 120 119 117 115 113 110 108 108 113 116 117 116 113 113 112 110 108 106 104 103 103 102 103 99 91 81 76 77 75 74
184 188 204 233 257 296 237 232 225 233 243 269 268 115 116 199 150 228 249 233 218 215 207 192 194 106 88 63 58 58 57 61 70 91 115 127 143 145 144 137 130 134 138 139 138 139 145 149 146 145 142 141 141 139 140 139 140 139 136 132 131 129 127 126 124 122 120 118 116 114 113 110 106 105 106 111 116 118 116 112 112 113 109 106 106 103 103 103 104 105 98 90 81 76 76 75 74
196 188 188 216 230 239 237 233 233 233 210 234 265 211 146 174 181 256 230 212 206 206 213 193 184 134 115 114 89 67 65 72 95 111 125 140 145 144 143 135 130 137 138 138 138 138 145 147 144 143 140 139 139 139 140 141 143 141 136 136 134 131 128 126 125 123 121 118 116 113 111 107 104 104 107 111 111 111 113 112 112 114 109 109 110 103 102 106 108 106 96 89 80 76 75 74 75
212 210 189 214 209 203 235 235 237 241 158 216 260 269 246 224 231 255 218 204 197 192 203 170 205 241 101 101 119 82 67 72 105 117 132 145 145 144 140 136 136 139 138 136 135 137 144 145 142 141 139 138 139 140 142 144 144 141 138 138 136 132 130 126 125 124 122 120 117 113 110 107 106 106 109 112 111 110 111 113 112 116 119 118 111 102 106 111 110 105 95 87 80 77 76 75 75
207 218 201 224 224 203 228 229 224 236 215 227 240 240 256 254 242 248 221 201 188 173 195 165 190 259 108 116 120 93 71 81 112 124 141 145 147 148 140 141 141 137 135 133 131 134 141 143 140 140 139 138 140 142 143 145 143 141 139 139 138 134 130 127 127 126 124 122 117 113 111 108 105 103 106 110 114 116 113 112 115 125 131 119 107 105 111 113 109 103 95 88 83 80 79 77 77
199 217 217 222 234 217 220 223 215 217 221 226 227 221 221 232 234 236 216 188 171 146 226 190 132 105 143 162 105 89 82 107 123 135 146 145 154 154 142 144 139 134 132 130 130 132 138 140 138 138 139 138 139 141 142 145 144 142 141 140 139 135 131 129 129 127 125 123 119 115 112 108 101 97 101 108 113 117 115 114 120 129 130 113 107 112 113 110 107 106 99 92 88 85 82 80 79
199 207 233 224 225 223 219 212 202 192 191 203 214 220 219 227 224 219 203 180 170 156 184 189 116 127 153 137 87 96 109 125 132 138 142 144 155 153 140 135 126 126 127 129 130 131 135 137 137 139 139 139 139 139 140 143 145 144 143 142 140 137 133 131 130 128 126 123 120 117 114 106 97 92 96 106 111 115 117 121 124 121 125 118 112 114 111 108 109 109 104 98 95 90 85 82 82
213 185 216 226 221 221 225 215 189 178 179 196 198 188 206 229 217 205 196 183 172 156 173 165 129 168 168 138 115 113 118 124 127 130 131 135 146 143 128 118 116 122 125 127 130 130 133 135 138 140 140 140 140 140 141 145 147 147 145 143 141 138 135 133 131 129 127 124 121 117 113 104 96 91 92 101 111 118 120 127 127 117 124 123 117 115 110 109 111 110 106 104 100 93 88 84 82
227 190 206 219 230 221 214 215 177 184 189 189 179 151 199 229 215 196 193 194 184 175 170 125 127 163 183 139 126 125 123 119 125 125 125 133 140 131 117 114 118 122 125 126 130 133 132 135 139 139 139 140 141 142 145 148 150 148 146 144 142 139 136 135 133 131 129 125 122 117 113 105 98 93 92 98 108 117 121 127 128 121 125 125 120 116 112 113 113 111 110 109 103 96 90 83 81
226 203 219 209 217 224 209 201 170 193 184 144 133 175 223 225 219 202 200 198 178 155 114 101 151 183 178 137 132 132 128 127 132 131 131 139 137 123 113 112 115 120 129 131 133 135 135 139 140 140 141 142 143 147 149 152 152 150 148 145 142 140 138 137 135 133 130 127 123 118 114 106 98 92 91 97 107 117 122 126 128 125 125 125 121 119 117 117 117 116 115 111 104 98 90 83 79
228 205 231 221 202 212 203 202 172 198 166 109 97 210 218 207 220 218 218 202 122 93 102 105 236 224 156 125 128 126 133 137 135 133 133 137 129 118 112 115 123 129 137 139 139 140 142 142 142 143 145 147 149 151 153 154 155 153 151 147 143 143 142 140 138 136 132 128 125 120 114 105 97 90 88 97 113 119 120 126 126 124 126 126 125 123 120 119 121 122 118 112 105 99 90 83 79
227 216 224 222 206 199 184 188 184 200 111 84 84 193 206 160 198 217 227 215 108 120 119 112 129 339 71 85 105 123 135 135 133 132 128 127 120 116 120 124 126 131 140 144 144 145 145 144 144 146 147 152 153 152 154 155 156 155 154 150 147 146 145 143 140 138 136 132 128 121 111 105 98 88 86 97 113 119 123 129 123 121 125 128 126 124 123 123 125 123 119 113 107 102 92 83 78
213 227 218 210 206 191 174 180 173 192 52 64 84 195 209 146 181 208 199 167 126 126 107 91 91 65 79 94 111 126 133 130 130 132 126 126 120 120 127 129 129 136 147 148 148 149 149 148 147 147 149 154 153 151 154 155 156 156 156 155 152 149 148 148 144 142 139 137 133 123 115 114 109 103 101 103 114 126 133 131 124 121 123 124 123 122 123 124 124 121 117 110 108 102 96 89 79
203 218 213 208 196 173 157 140 33 348 14 38 70 201 223 165 172 179 177 166 137 131 122 107 89 79 94 109 120 129 132 130 131 134 131 132 129 130 136 141 143 145 152 152 153 152 151 152 149 149 152 154 153 150 153 156 155 156 157 157 156 152 152 153 149 146 143 142 139 131 127 125 120 116 114 112 122 133 135 130 126 125 120 118 119 118 119 120 119 116 112 110 107 98 98 99 91
217 221 213 208 172 134 104 44 8 345 351 7 67 184 221 163 161 173 178 165 149 146 136 127 106 100 108 115 125 131 131 130 133 137 133 133 133 135 138 142 146 146 153 154 153 153 152 153 150 150 154 155 153 150 153 155 156 158 158 158 158 156 157 156 152 150 149 148 146 141 137 130 124 121 121 128 135 136 136 134 132 127 122 120 120 117 116 115 113 111 110 107 98 93 99 101 103
221 227 218 191 142 127 119 348 348 353 347 347 54 139 177 136 159 184 178 167 165 158 139 145 132 124 123 120 126 127 126 126 129 131 127 129 127 128 134 138 145 149 153 153 152 152 152 153 151 151 155 157 154 152 153 155 158 160 160 159 159 161 162 159 154 154 154 152 150 146 140 131 127 124 121 127 135 138 138 138 136 132 128 124 121 118 115 108 105 106 102 98 93 92 99 92 94
194 216 232 135 140 154 133 20 355 355 345 345 5 149 134 121 155 176 163 165 168 149 140 159 150 141 131 124 124 121 122 124 124 124 122 124 118 121 129 132 142 148 151 154 152 150 151 154 152 151 154 159 157 154 155 157 160 160 161 161 161 163 163 160 156 155 155 154 151 147 144 137 130 127 123 123 134 141 143 144 143 140 135 131 127 125 123 114 113 115 104 103 108 98 95 91 89
189 210 283 89 169 181 110 63 0 349 329 336 331 127 112 119 118 109 152 166 153 119 138 150 141 139 132 125 125 123 124 124 122 120 121 122 119 121 120 124 138 144 151 153 148 146 149 154 155 153 156 163 161 158 159 160 162 162 162 163 163 163 162 160 159 156 153 153 152 150 150 144 138 136 134 132 141 149 152 153 152 149 147 145 141 136 131 125 122 120 113 110 109 100 95 94 94
221 200 237 192 207 223 105 33 358 340 317 350 17 71 118 133 105 97 127 131 62 93 126 133 124 124 122 120 124 126 125 120 116 116 121 124 128 129 116 122 139 144 148 146 145 147 152 159 160 158 161 167 166 163 161 162 165 165 163 164 165 163 163 162 161 158 154 154 154 155 157 152 147 144 140 138 143 156 162 159 155 155 154 153 151 143 135 130 119 111 111 107 101 100 100 101 99
246 199 186 202 233 247 266 334 339 321 312 354 8 147 148 137 109 104 106 102 105 107 117 119 114 115 116 118 122 123 120 116 113 113 118 123 131 138 129 127 133 142 149 150 150 156 164 168 167 164 168 173 172 166 163 166 169 166 164 166 167 164 165 166 164 161 158 157 157 161 166 162 158 152 149 147 149 160 165 161 157 158 158 155 153 146 140 132 121 114 110 106 100 97 96 99 103
234 216 164 198 237 242 281 319 309 311 302 324 268 159 91 89 101 90 85 98 113 113 117 115 114 118 119 121 121 118 116 114 113 114 118 126 132 142 158 150 144 150 160 165 164 166 174 173 172 173 175 177 175 168 165 169 170 167 165 165 166 166 168 170 168 164 162 162 162 166 169 169 167 163 160 156 155 160 161 162 162 163 160 156 155 151 145 136 126 120 112 104 99 94 94 94 100
212 221 169 204 224 237 291 310 303 308 272 291 217 131 96 107 108 78 73 99 116 122 124 121 120 124 125 125 123 121 120 118 118 120 123 130 136 145 174 187 177 178 176 178 182 189 189 182 181 182 182 181 178 172 168 170 169 168 166 165 166 172 177 175 175 171 166 165 165 168 171 175 174 169 171 165 162 161 161 166 166 166 162 161 162 157 150 143 133 124 117 108 99 94 94 94 101
177 228 223 223 231 236 274 320 326 274 202 282 240 129 108 154 171 83 92 116 130 134 131 127 126 124 126 126 124 124 123 122 123 124 126 135 148 157 179 206 209 201 194 195 198 201 197 191 189 191 192 187 182 178 173 171 172 173 174 175 173 178 187 183 182 179 169 167 168 170 172 176 177 176 180 175 170 169 169 170 168 168 165 165 167 162 156 149 137 128 116 105 97 95 99 102 107
192 244 234 225 234 229 238 243 249 228 165 248 258 139 144 184 151 96 112 136 144 140 135 131 128 124 129 129 124 123 120 123 127 131 136 145 160 170 192 211 216 212 210 209 208 204 198 195 195 196 198 194 190 185 178 175 178 182 182 185 181 180 189 191 193 188 175 171 169 171 175 179 179 181 187 185 181 180 180 178 171 170 169 170 170 165 162 152 142 133 115 107 105 103 106 107 112
222 240 226 204 212 216 210 182 169 216 153 185 250 192 186 166 102 106 124 151 149 142 138 134 130 126 129 132 128 123 118 123 126 126 125 123 147 185 205 210 216 215 217 220 213 208 200 196 200 201 202 199 195 193 188 184 186 190 186 187 187 183 190 196 200 194 182 176 171 172 176 180 182 183 190 191 192 192 190 188 182 179 176 175 174 170 165 159 154 143 131 131 129 128 126 122 125
199 209 227 191 199 204 182 161 166 197 118 127 240 216 183 136 102 123 144 161 151 143 142 137 134 128 128 131 128 120 113 111 103 91 91 97 132 174 193 189 202 207 211 224 217 214 204 194 199 203 205 203 200 199 197 193 191 193 190 190 189 187 193 199 200 196 189 183 177 177 180 184 188 187 191 194 196 199 199 197 195 193 188 183 180 180 174 169 170 162 167 159 149 159 142 134 139
178 177 217 203 206 180 160 162 178 183 132 209 236 239 192 143 115 135 153 168 158 151 155 144 132 126 126 127 122 117 106 96 92 87 85 89 103 127 146 152 174 197 200 210 216 225 215 195 197 204 206 204 203 205 203 199 196 195 196 197 195 193 197 202 202 196 193 192 188 184 184 190 194 195 195 197 200 202 204 205 204 203 198 192 190 191 187 179 182 179 186 178 166 170 150 144 152
180 179 194 199 217 164 152 168 194 195 156 191 226 247 202 149 134 144 157 177 167 161 160 142 126 125 125 122 116 110 104 101 95 89 88 85 83 100 119 130 140 160 175 188 202 229 228 205 201 210 209 206 209 211 210 208 203 202 202 202 200 198 199 203 202 197 196 199 203 201 194 193 198 203 201 198 204 206 206 209 210 208 200 197 197 197 196 190 189 184 191 219 209 184 159 154 159
185 219 195 181 210 180 154 169 194 215 169 188 219 247 227 147 145 150 162 185 175 167 158 137 128 128 123 117 116 109 107 111 99 90 91 86 78 86 103 119 128 134 136 155 156 207 239 220 205 216 217 213 214 217 219 218 216 210 206 206 204 202 203 203 201 203 206 206 214 221 210 202 201 205 206 204 208 211 210 212 212 211 204 201 203 202 201 198 193 189 188 210 247 231 173 160 167
178 224 202 178 216 216 164 161 169 202 207 207 213 237 245 141 152 159 167 188 179 173 165 148 138 125 117 117 126 127 125 123 104 91 86 83 76 78 92 105 108 97 85 82 77 206 258 246 212 215 220 217 216 218 221 223 226 221 211 212 211 208 210 208 203 205 215 219 222 228 223 214 209 206 207 209 211 214 214 214 213 211 207 206 207 206 206 203 195 194 195 189 229 253 198 164 182
184 204 209 191 212 235 234 167 140 188 221 225 212 224 224 156 163 171 174 188 181 174 170 159 141 122 127 143 142 143 142 127 101 85 80 75 65 66 76 83 85 76 62 69 50 348 291 273 252 227 212 211 210 215 219 221 230 230 219 217 217 216 218 217 215 212 221 227 224 228 230 223 217 211 209 210 212 215 215 216 215 211 208 208 210 209 208 206 198 193 198 192 204 240 234 201 207
245 221 244 230 210 223 236 251 87 195 230 228 219 225 215 177 173 178 179 187 181 170 168 166 149 139 157 166 157 158 149 124 107 104 91 74 57 60 68 70 83 84 63 73 82 40 5 300 276 266 244 228 214 211 219 219 223 229 225 219 215 214 213 211 215 218 222 226 221 224 231 228 222 216 213 212 212 214 216 217 217 213 210 210 211 212 210 207 201 196 198 201 203 219 229 226 229
280 247 241 242 240 222 169 53 49 232 242 229 223 230 217 188 179 179 180 181 177 170 170 170 168 170 178 176 168 162 149 132 134 131 107 88 71 64 66 71 84 88 70 62 75 78 63 44 271 260 253 252 241 223 223 220 218 223 224 221 218 217 216 214 215 219 224 231 230 227 229 228 227 222 217 215 214 215 215 216 218 214 212 213 213 215 214 207 201 199 197 201 206 213 222 224 237
252 248 239 224 233 223 109 51 285 218 237 227 215 228 216 187 182 179 179 182 179 175 174 175 179 181 184 179 165 156 152 150 149 136 117 100 82 72 75 76 69 70 69 42 30 45 341 294 263 251 245 252 253 244 237 230 225 227 226 225 227 226 229 230 227 225 224 230 238 237 237 234 230 226 221 217 215 216 217 215 216 216 212 213 215 215 214 205 199 198 195 198 204 211 217 216 231
238 240 247 236 233 244 145 163 225 203 228 222 203 219 210 182 187 183 184 187 180 179 179 178 182 183 187 180 160 157 160 154 150 135 117 103 90 85 85 81 73 69 68 56 42 35 12 320 285 265 251 240 246 250 245 238 234 233 232 232 234 235 237 239 239 236 228 227 234 242 245 242 235 228 224 221 218 220 223 219 215 216 214 212 213 213 211 204 199 197 197 200 200 205 210 207 216
242 244 249 245 237 267 231 165 165 193 227 245 206 209 195 175 194 190 190 188 176 188 186 177 186 190 190 181 162 164 162 152 145 128 113 107 104 99 90 86 85 80 74 67 53 45 39 14 351 302 264 247 244 245 244 242 240 240 240 240 241 243 244 244 247 245 237 235 238 244 245 241 237 230 225 225 224 223 228 226 218 215 213 212 212 212 209 207 206 201 199 200 201 207 208 202 205
239 264 275 273 256 275 288 107 149 184 211 236 210 208 194 187 202 190 187 190 179 188 186 178 189 194 192 182 170 168 160 152 141 125 119 116 111 107 104 102 99 93 84 71 58 52 44 24 11 339 282 254 248 247 245 239 237 237 239 240 239 242 245 245 248 248 244 241 242 244 244 241 237 231 226 227 226 226 230 231 227 219 215 214 213 212 211 211 210 206 201 200 204 212 211 202 199
229 257 317 312 285 270 269 180 198 209 209 207 209 225 209 192 204 191 182 194 186 186 188 187 190 187 188 188 179 175 165 154 138 130 129 122 117 122 123 120 115 107 94 81 71 64 49 33 12 339 302 257 247 247 246 241 237 235 231 228 225 229 237 237 239 242 242 241 240 242 245 244 239 231 227 227 226 228 233 233 231 225 220 220 216 213 214 212 211 208 204 202 206 211 214 213 205
242 207 348 302 275 254 239 229 239 251 234 184 208 241 223 188 202 192 185 200 195 190 192 194 195 187 186 189 180 175 171 157 145 145 141 133 136 137 130 125 119 111 106 102 94 88 82 63 25 341 323 281 255 236 235 238 239 237 233 230 228 230 234 238 241 241 242 243 242 244 245 246 245 237 230 228 225 226 229 230 233 230 224 227 225 216 213 211 211 209 204 204 206 208 211 218 218
273 76 289 270 264 254 252 253 255 270 350 163 209 241 246 210 204 189 185 199 200 198 198 199 202 195 189 188 179 174 172 161 154 157 151 144 145 144 134 128 124 121 124 126 118 105 91 73 38 312 311 297 269 246 232 231 234 236 236 232 230 233 236 243 249 248 248 247 246 249 245 243 247 247 239 231 226 225 229 234 243 240 229 230 233 225 216 209 212 210 203 203 204 207 209 216 227
330 43 269 265 268 263 263 262 260 259 260 234 206 215 244 239 197 182 188 202 206 202 199 200 202 197 192 189 180 175 171 164 162 160 155 151 151 153 149 140 137 138 142 139 128 111 90 77 57 22 296 281 278 265 247 241 239 239 240 233 230 233 235 241 247 248 251 250 247 248 246 241 243 248 246 236 229 228 229 232 238 238 233 231 232 237 231 214 212 210 201 202 204 207 211 216 228
28 310 246 241 249 252 254 255 256 244 240 254 224 197 233 243 184 175 196 211 214 205 200 203 202 196 192 189 183 179 173 168 167 161 156 157 156 158 162 160 161 159 157 148 128 115 99 84 59 49 20 308 292 281 264 254 248 244 244 238 234 237 237 237 240 243 245 248 246 243 244 244 241 243 245 239 232 229 227 224 224 230 237 235 229 239 245 225 212 211 204 206 209 210 214 218 226
221 237 239 237 241 243 249 252 255 252 236 250 246 218 233 250 210 187 197 214 220 207 204 208 203 199 194 191 188 181 176 172 170 165 160 159 159 162 172 176 177 173 167 157 134 121 112 90 62 53 38 358 314 296 281 266 257 249 245 240 236 237 237 235 235 237 237 241 243 241 245 247 241 238 239 236 232 230 228 226 222 222 232 236 229 234 246 234 214 212 208 207 213 215 219 220 223
230 240 245 247 246 234 243 242 231 249 247 239 241 226 230 249 242 208 181 200 218 211 211 212 206 203 196 192 191 183 180 176 172 170 163 163 165 170 181 183 178 177 171 161 141 128 123 110 82 52 40 16 328 305 294 279 265 255 245 240 238 235 235 236 234 235 235 235 237 239 242 243 239 236 234 232 231 229 228 228 225 219 222 233 231 229 238 234 218 213 210 210 216 219 223 225 225
228 240 245 245 246 227 234 240 226 244 248 210 203 221 232 246 254 246 171 186 216 215 220 224 217 214 205 193 190 184 182 179 176 174 167 168 172 176 183 182 177 179 173 163 146 133 126 117 92 48 49 26 329 302 292 283 271 260 248 239 238 237 236 237 237 236 236 234 233 234 236 237 235 233 229 229 230 228 227 225 224 222 221 227 229 226 229 228 219 215 212 213 219 222 225 227 228
225 234 240 242 251 246 241 241 239 247 235 174 161 226 249 255 252 237 202 189 215 212 227 239 234 229 219 201 192 185 182 181 178 176 170 171 176 177 181 180 179 182 175 164 149 136 126 110 86 31 32 299 289 284 280 277 270 264 254 242 238 241 240 240 240 239 238 237 234 234 236 236 235 234 230 231 231 228 227 225 224 225 221 219 221 224 226 224 217 217 218 218 220 224 227 227 229
238 242 245 250 253 252 254 255 257 262 246 191 167 212 252 259 227 147 171 169 166 231 240 244 241 236 227 210 200 193 187 183 177 175 173 172 174 177 180 182 184 182 173 166 156 146 135 105 63 3 329 289 279 278 280 285 283 277 268 254 242 241 244 245 243 242 241 239 238 239 241 239 237 237 235 233 232 229 229 228 226 226 224 219 220 222 224 221 218 219 221 223 223 226 228 228 229
236 242 245 257 261 236 246 276 300 309 287 244 202 228 256 232 142 144 166 201 214 230 235 230 230 224 218 212 208 202 195 188 180 175 174 171 172 177 181 186 187 181 176 171 163 152 139 111 48 325 309 299 292 291 290 294 293 290 288 277 261 252 250 249 247 244 241 240 240 242 244 243 239 237 235 233 232 230 229 228 227 226 226 224 223 221 220 220 221 221 222 225 226 228 229 230 231
207 224 235 273 343 283 264 256 291 292 272 261 239 246 252 232 207 187 191 217 220 220 226 226 223 213 209 207 205 203 199 193 185 176 172 171 173 179 185 186 182 179 183 178 162 146 137 140 277 283 283 282 286 292 291 289 290 294 295 288 281 272 263 259 256 251 247 245 244 245 246 247 244 240 237 234 233 232 229 227 228 228 227 227 226 221 219 219 220 222 222 224 228 230 231 233 233
256 238 237 63 9 284 271 259 240 242 254 255 246 251 256 258 243 174 188 232 233 223 224 228 222 211 211 210 207 204 198 194 188 176 170 171 174 179 185 184 179 182 187 173 154 146 157 194 246 260 267 276 281 285 284 282 286 294 295 290 287 280 270 267 265 259 255 251 248 246 246 247 247 245 243 239 236 234 231 228 227 227 228 230 228 223 220 219 220 224 223 222 226 229 231 232 232
270 306 341 274 264 241 230 244 259 259 262 262 256 257 256 256 248 201 214 239 243 235 222 233 237 222 218 217 211 205 195 192 190 180 170 169 175 180 182 181 182 185 184 165 159 176 196 216 233 245 258 272 277 277 279 280 283 291 294 292 293 292 282 274 268 262 256 252 249 248 248 248 247 246 247 245 241 238 236 231 229 228 227 229 227 222 220 219 218 221 223 222 222 224 228 230 229
228 262 236 236 272 270 245 251 264 267 270 274 272 267 259 259 256 240 254 263 275 281 266 257 256 240 228 220 210 205 196 193 192 182 171 171 178 181 179 183 188 183 174 166 179 205 222 231 236 240 251 265 270 273 278 280 280 287 295 297 301 304 300 294 285 268 257 253 251 249 250 251 250 249 248 247 245 242 240 236 232 230 226 225 225 221 218 216 214 217 222 223 219 219 224 228 227
211 227 220 215 227 253 267 265 258 266 274 277 278 272 270 350 76 54 298 297 299 303 292 277 270 258 239 219 207 202 195 195 195 185 175 174 178 179 178 188 194 180 171 182 197 213 224 230 236 240 247 257 264 268 273 275 276 282 293 302 305 307 308 309 305 287 268 259 254 249 249 249 249 249 248 247 247 244 241 237 234 231 227 224 223 221 216 215 215 216 219 223 219 217 222 225 225
271 258 244 244 239 242 257 252 241 250 267 273 278 278 280 63 79 330 301 300 311 320 307 296 285 269 243 216 205 199 195 199 198 190 184 177 175 178 182 190 193 182 187 202 208 215 221 223 226 236 248 261 272 272 268 270 275 282 290 299 304 306 310 313 309 297 282 274 269 262 255 250 247 248 249 249 248 246 243 238 234 232 228 225 224 222 219 215 214 213 214 219 220 218 221 223 222